FW9693 Weather Reports


time (UTC)temp
F
wind
direction
speed
knots
gust
knots
rain 1hr
in
rain 24hr
in
rain mn
in
humidity
%
barometer
mb
20260507124559 55 86 8.7 13.9 0.00 0.00 0.00 66 1013.1
20260507121551 55 83 10.4 17.4 0.00 0.00 0.00 66 1012.4
20260507120042 55 79 16.5 20.9 0.00 0.00 0.00 66 1012.3
20260507114538 56 79 15.6 21.7 0.00 0.00 0.00 65 1011.8
20260507111533 57 73 13.0 19.1 0.00 0.00 0.00 71 1011.4
20260507110032 57 66 12.2 17.4 0.00 0.00 0.00 71 1011.5
20260507104530 58 74 16.5 23.5 0.00 0.00 0.00 70 1011.3
20260507101525 59 64 13.0 19.1 0.00 0.00 0.00 69 1011.1
20260507100021 59 63 15.6 19.1 0.00 0.00 0.00 69 1010.9
20260507094519 60 48 14.8 18.2 0.00 0.00 0.00 70 1010.7
20260507091519 61 28 8.7 14.8 0.00 0.00 0.00 68 1010.3
20260507090014 61 15 7.8 12.2 0.00 0.00 0.00 67 1010.1
20260507084532 61 85 11.3 16.5 0.00 0.00 0.00 67 1009.2
20260507081509 62 99 10.4 14.8 0.00 0.00 0.00 66 1008.7
20260507080004 63 90 9.6 12.2 0.00 0.00 0.00 64 1008.7
20260507074608 64 63 9.6 12.2 0.00 0.00 0.00 60 1008.7
20260507073157 64 104 7.0 9.6 0.00 0.00 0.00 58 1008.4
20260507071606 65 85 8.7 11.3 0.00 0.00 0.00 56 1008.4
20260507070106 65 59 9.6 13.9 0.00 0.00 0.00 52 1008.6
20260507064555 66 117 9.6 13.0 0.00 0.00 0.00 49 1008.2
20260507063149 67 107 10.4 14.8 0.00 0.00 0.00 46 1008.1
20260507061543 68 117 11.3 15.6 0.00 0.00 0.00 42 1008.0
20260507060039 69 115 10.4 15.6 0.00 0.00 0.00 39 1008.0
20260507054556 71 113 10.4 13.0 0.00 0.00 0.00 36 1008.1
20260507053136 72 137 8.7 10.4 0.00 0.00 0.00 35 1007.9
20260507051537 72 137 7.8 8.7 0.00 0.00 0.00 35 1007.9
20260507050042 72 118 7.0 10.4 0.00 0.00 0.00 34 1007.8
20260507044553 75 144 7.8 10.4 0.00 0.00 0.00 31 1007.6
20260507043133 75 155 7.0 7.8 0.00 0.00 0.00 31 1007.4
20260507041531 75 151 5.2 12.2 0.00 0.00 0.00 31 1007.2
20260507040036 76 182 7.0 10.4 0.00 0.00 0.00 30 1007.1
20260507034529 76 155 4.3 7.0 0.00 0.00 0.00 29 1007.0
20260507033128 78 68 3.5 7.0 0.00 0.00 0.00 27 1006.6
20260507031530 77 165 6.1 10.4 0.00 0.00 0.00 27 1006.5
20260507030031 78 90 5.2 9.6 0.00 0.00 0.00 24 1006.3
20260507024535 77 90 7.0 7.8 0.00 0.00 0.00 20 1005.9
20260507023126 78 311 3.5 7.8 0.00 0.00 0.00 18 1005.5
20260507021534 79 317 5.2 8.7 0.00 0.00 0.00 18 1005.3
20260507020026 79 293 7.0 8.7 0.00 0.00 0.00 18 1005.0
20260507014528 81 292 6.1 8.7 0.00 0.00 0.00 17 1004.8
20260507013124 82 303 7.8 10.4 0.00 0.00 0.00 16 1004.4
20260507011525 83 301 8.7 15.6 0.00 0.00 0.00 15 1004.1
20260507010031 83 288 14.8 17.4 0.00 0.00 0.00 14 1003.9
20260507004523 84 248 12.2 17.4 0.00 0.00 0.00 14 1003.9
20260507003125 84 279 13.0 17.4 0.00 0.00 0.00 14 1003.8
20260507001522 85 288 14.8 20.0 0.00 0.00 0.00 13 1003.8
20260507000026 84 290 12.2 18.2 0.00 0.00 0.00 13 1003.7
20260506234518 82 9 3.5 10.4 0.00 0.00 0.00 24 1003.7
20260506233118 82 138 7.8 13.9 0.00 0.00 0.00 25 1003.6
20260506231520 82 108 4.3 16.5 0.00 0.00 0.00 24 1003.5
20260506230019 81 124 10.4 15.6 0.00 0.00 0.00 27 1003.4
20260506224515 81 113 13.0 18.2 0.00 0.00 0.00 27 1003.4
20260506223115 80 111 13.9 21.7 0.00 0.00 0.00 28 1003.2
20260506221513 81 108 12.2 16.5 0.00 0.00 0.00 27 1003.4
20260506220010 80 93 7.8 14.8 0.00 0.00 0.00 28 1003.6
20260506214507 79 109 13.0 21.7 0.00 0.00 0.00 28 1003.7
20260506213105 79 95 10.4 16.5 0.00 0.00 0.00 30 1003.9
20260506211505 78 49 8.7 17.4 0.00 0.00 0.00 30 1004.0
20260506210003 79 99 12.2 20.0 0.00 0.00 0.00 30 1004.3
20260506204601 79 133 12.2 20.9 0.00 0.00 0.00 31 1004.5
20260506203057 78 135 13.9 21.7 0.00 0.00 0.00 31 1004.6
20260506201555 78 137 10.4 18.2 0.00 0.00 0.00 30 1004.9
20260506200052 77 136 9.6 16.5 0.00 0.00 0.00 31 1005.0
20260506194550 77 93 7.8 15.6 0.00 0.00 0.00 32 1005.1
20260506193052 75 109 10.4 14.8 0.00 0.00 0.00 35 1005.5
20260506191547 74 104 11.3 16.5 0.00 0.00 0.00 36 1005.5
20260506190043 74 66 10.4 15.6 0.00 0.00 0.00 36 1005.8
20260506184541 73 115 6.1 13.0 0.00 0.00 0.00 38 1006.3
20260506183038 73 104 8.7 12.2 0.00 0.00 0.00 39 1006.5
20260506181543 73 74 7.0 13.0 0.00 0.00 0.00 40 1006.6
20260506180033 71 103 4.3 12.2 0.00 0.00 0.00 41 1006.8
20260506174534 71 118 7.0 14.8 0.00 0.00 0.00 43 1007.0
20260506173048 70 90 10.4 15.6 0.00 0.00 0.00 44 1007.0
20260506171538 70 79 13.9 18.2 0.00 0.00 0.00 44 1007.0
20260506170029 71 83 13.9 19.1 0.00 0.00 0.00 43 1006.9
20260506164522 75 20 3.5 10.4 0.00 0.00 0.00 27 1006.6
20260506163028 74 347 8.7 12.2 0.00 0.00 0.00 27 1006.7
20260506161522 74 34 5.2 14.8 0.00 0.00 0.00 27 1006.6
20260506160020 74 9 7.8 18.2 0.00 0.00 0.00 27 1006.5
20260506154522 74 332 11.3 17.4 0.00 0.00 0.00 26 1006.4
20260506153023 73 333 13.9 17.4 0.00 0.00 0.00 27 1006.3
20260506151517 73 327 11.3 18.2 0.00 0.00 0.00 27 1006.1
20260506150018 73 312 11.3 15.6 0.00 0.00 0.00 27 1006.0
20260506144515 71 302 11.3 14.8 0.00 0.00 0.00 28 1006.0
20260506143023 71 316 12.2 17.4 0.00 0.00 0.00 28 1005.9
20260506141514 71 284 13.9 17.4 0.00 0.00 0.00 28 1005.8
20260506140018 70 282 12.2 17.4 0.00 0.00 0.00 27 1005.6
20260506134511 71 296 13.0 20.0 0.00 0.00 0.00 27 1005.4
20260506133010 71 296 13.9 17.4 0.00 0.00 0.00 26 1005.1
20260506131509 71 273 13.9 15.6 0.00 0.00 0.00 26 1005.0
20260506130006 71 287 12.2 16.5 0.00 0.00 0.00 26 1004.7